Location: Montr�al
(45.5000°N, 73.5830°W)
Time: 02:18:02
(UTC-04:00)

ISS - Visible Passes

Search period start: 25 October 2014 00:00
Search period end: 03 November 2014 23:00
Orbit: 412 x 416 km, 51.6° (Epoch: 24 October)

Date Brightness Start Highest point End Pass type
(mag) Time Alt. Az. Time Alt. Az. Time Alt. Az.
25 Oct -2.8 18:50:43 10° WNW 18:54:01 59° SW 18:57:19 10° SE visible
26 Oct -0.4 19:39:05 10° W 19:41:06 15° SW 19:43:07 10° S visible
27 Oct -1.0 18:49:14 10° W 18:52:01 25° SW 18:54:48 10° SSE visible
29 Oct 0.3 18:49:11 10° WSW 18:49:40 10° SW 18:50:09 10° SW visible
